Find Starlink 30517

NORAD ID: 57995 Int'l Des: 2023-153 Owner: SPXS Country: US Constellation: starlink operational
LEOCIRCULAR

Current View

Loading 3D Globe...

About Starlink 30517

Starlink 30517 (NORAD 57995) is a starlink constellation satellite (v2 mini) launched Oct 5, 2023 by SPXS of US. It operates in LEO, CIRCULAR orbit with a mass of 730.00 kg.

About Starlink 30517

Description loading...

Upcoming Passes

Passes for default location (London). Set your location on the main map for personalized predictions.

Altitude History

Loading altitude history...

Two-Line Element Set

1 57995U 23153E 26167.88226833 -.00001551 00000-0 -46867-4 0 9990
2 57995 43.0004 227.1206 0001194 262.9563 97.1153 15.27560874150069
Epoch: Jun 16, 2026 • Age: 33 hours

Current Status

Altitude 495.5 km
Velocity 7.62 km/s
Sub-Earth Point -42.77°S, 145.92°E
Launch Date Oct 5, 2023
Age 2.7 years
Type internet

Technical Details

Classification Payload
Mass 730.00 kg
Dry Mass 700.00 kg
Total Mass 730.00 kg
Length 0.30 m
Diameter 4.10 m
Span 29.00 m
Shape Box + pan
Manufacturer SPXS
Bus Type Starlink V2M
Phase Status In Orbit
Owner/State SPXS/US

Most Searched